Regional Weather Roundup
Issued by NWS

Home | Current Version | Previous Version | Graphics & Text | Print | Product List | Glossary On
Versions: 1 2 3 4 5 6 7 8 9 10 11 12 13 14 15 16 17 18 19 20 21 22 23 24 25 26 27 28 29 30 31 32 33 34 35 36 37 38 39 40 41 42 43 44 45 46 47 48 49 50
915
ASUS45 KCYS 180210
RWRWY

WYOMING REGIONAL WEATHER ROUNDUP
NATIONAL WEATHER SERVICE CHEYENNE WY
700 PM MST WED JAN 17 2018

NOTE:  "FAIR" INDICATES FEW OR NO CLOUDS BELOW 12,000 FEET
WITH NO SIGNIFICANT WEATHER AND/OR OBSTRUCTIONS TO VISIBILITY.

WYZ001-180300-
YELLOWSTONE NATIONAL PARK

CITY           SKY/WX    TMP DP  RH WIND       PRES   REMARKS
LK YELLOWSTONE   N/A     26  22  84 CALM      30.33F
W YELLOWSTONE  NOT AVBL

$$
WYZ002>013-054>058-071-098>099-180300-
NORTHERN WYOMING

CITY           SKY/WX    TMP DP  RH WIND       PRES   REMARKS
JACKSON        FAIR      14   7  73 N3        30.36F
CODY           FAIR      21  14  74 VRB5      30.17F WCI  15
GREYBULL       FAIR      15   9  76 W3        30.22F
WORLAND        FAIR      15  10  80 CALM      30.20F
SHERIDAN       FAIR      25  15  66 CALM      30.10F
BUFFALO        FAIR      34  11  38 W7        30.12S WCI  28
GILLETTE       FAIR      33  21  61 VRB6      30.12F WCI  28
HULETT         FAIR      36  21  55 SW8       30.13S WCI  29
NEWCASTLE      FAIR      27  19  74 NE5       30.16F WCI  21

$$
WYZ014>020-022>026-101>103-180300-
CENTRAL WYOMING

CITY           SKY/WX    TMP DP  RH WIND       PRES   REMARKS
BIG PINEY      FAIR      21  16  81 CALM      30.35S
PINEDALE       FAIR      12   9  85 W5        30.36S WCI   4
DUBOIS         FAIR      32  18  55 N21       30.24F WCI  20
LANDER         FAIR      20  15  81 E5        30.23F WCI  13
RIVERTON       FAIR      19  11  70 W3        30.24F
CASPER         FAIR      34  18  52 SW12      30.21S WCI  25
DOUGLAS        FAIR      26  20  77 CALM      30.20F

$$
WYZ021-027>030-104>119-180300-
SOUTHERN WYOMING

CITY           SKY/WX    TMP DP  RH WIND       PRES   REMARKS
EVANSTON       FAIR      30  24  78 W8        30.36R WCI  22
FORT BRIDGER   FAIR      33  26  73 W12       30.37S WCI  25
ROCK SPRINGS   FAIR      32  23  69 W9        30.33S WCI  24
DIXON            N/A     26  18  72 CALM      30.38R
RAWLINS        FAIR      32  18  56 MISG      30.31R
SARATOGA       FAIR      25  14  63 S8        30.32S WCI  16
LARAMIE        FAIR      22  12  65 SE7       30.26F WCI  13
CHEYENNE       FAIR      28  15  58 NW3       30.24F
TORRINGTON     FAIR      27  23  85 E6        30.22S WCI  20

$$




USA.gov is the U.S. government's official web portal to all federal, state and local government web resources and services.